Weather History for Jackson, MS

Change the Weather History Date:

Friday, May 24, 2013

  Actual Average Record
Temperature  
Mean Temperature 73 °F 74 °F  
Max Temperature 84 °F 85 °F 95 °F (1996)
Min Temperature 62 °F 64 °F 46 °F (1931)
Degree Days  
Heating Degree Days 0 0  
Month to date heating degree days 52 10  
Since 1 July heating degree days 2309 2389  
Cooling Degree Days 8 10  
Month to date cooling degree days 132 166  
Year to date cooling degree days 240 284  
Growing Degree Days 25 (Base 50)    
Moisture  
Dew Point 61 °F    
Average Humidity 71    
Maximum Humidity 97    
Minimum Humidity 45    
Precipitation  
Precipitation 0.00 in 0.14 in 1.19 in (1932)
Month to date precipitation 5.17 3.38  
Year to date precipitation 32.94 23.11  
Sea Level Pressure  
Sea Level Pressure 30.15 in    
Wind  
Wind Speed 7 mph (NNE)    
Max Wind Speed 14 mph    
Max Gust Speed 18 mph    
Visibility 10 miles    
Events      
T = Trace of Precipitation, MM = Missing Value Source: NWS Daily Summary

Daily Weather History Graph

Daily Weather History Graph

Search for Another Location

Airport:

Trip Planner

Search our weather history database for the weather conditions in past years. The results will help you decide how hot, cold, wet, or windy it might be!

Date:

Astronomy

May. 24, 2013 Rise Set
Actual Time 5:57 AM CDT 7:57 PM CDT
Civil Twilight 5:29 AM CDT 8:25 PM CDT
Nautical Twilight 4:56 AM CDT 8:58 PM CDT
Astronomical Twilight 4:20 AM CDT 9:34 PM CDT
Moon 7:41 PM CDT (5/24) 5:26 AM CDT (5/24)
Length of Visible Light 14h 55m
Length of Day
14h 00m
Full, 100% of the Moon is Illuminated
May 24
Full
May 24
Full
May 31
Last Quarter
Jun 8
New
Jun 16
First Quarter

Hourly Weather History & Observations

Time (CDT) Temp. Heat Index Dew Point Humidity Pressure Visibility Wind Dir Wind Speed Gust Speed Precip Events Conditions
12:54 AM 70.0 °F - 68.0 °F 93% 30.06 in 10.0 mi Calm Calm - N/A   Clear
1:54 AM 68.0 °F - 66.0 °F 93% 30.05 in 10.0 mi North 3.5 mph - N/A   Clear
2:54 AM 68.0 °F - 66.0 °F 93% 30.06 in 10.0 mi North 3.5 mph - N/A   Clear
3:54 AM 68.0 °F - 64.9 °F 90% 30.06 in 10.0 mi Calm Calm - N/A   Clear
4:54 AM 68.0 °F - 64.0 °F 87% 30.07 in 10.0 mi NE 5.8 mph - N/A   Clear
5:54 AM 68.0 °F - 62.1 °F 81% 30.11 in 10.0 mi NE 9.2 mph - N/A   Clear
6:54 AM 68.0 °F - 62.1 °F 81% 30.14 in 10.0 mi NNE 8.1 mph - N/A   Clear
7:54 AM 69.1 °F - 60.1 °F 73% 30.17 in 10.0 mi NE 8.1 mph - N/A   Clear
8:54 AM 70.0 °F - 59.0 °F 68% 30.19 in 10.0 mi NE 9.2 mph - N/A   Mostly Cloudy
9:54 AM 73.0 °F - 59.0 °F 61% 30.20 in 10.0 mi NNE 9.2 mph - N/A   Scattered Clouds
10:54 AM 75.9 °F - 60.1 °F 58% 30.21 in 10.0 mi East 6.9 mph - N/A   Partly Cloudy
11:54 AM 75.9 °F - 61.0 °F 60% 30.21 in 10.0 mi North 5.8 mph - N/A   Scattered Clouds
12:54 PM 80.1 °F 81.2 °F 62.1 °F 54% 30.20 in 10.0 mi NNW 10.4 mph 17.3 mph N/A   Partly Cloudy
1:54 PM 82.0 °F 83.0 °F 62.1 °F 51% 30.20 in 10.0 mi North 11.5 mph 17.3 mph N/A   Partly Cloudy
2:54 PM 82.9 °F 83.7 °F 62.1 °F 49% 30.18 in 10.0 mi Variable 6.9 mph - N/A   Partly Cloudy
3:54 PM 82.9 °F 83.3 °F 61.0 °F 47% 30.17 in 10.0 mi North 8.1 mph - N/A   Partly Cloudy
4:54 PM 82.9 °F 83.2 °F 60.1 °F 46% 30.15 in 10.0 mi NNE 5.8 mph - N/A   Partly Cloudy
5:54 PM 82.0 °F 82.4 °F 60.1 °F 47% 30.14 in 10.0 mi North 10.4 mph - N/A   Partly Cloudy
6:54 PM 80.1 °F 80.6 °F 57.9 °F 47% 30.13 in 10.0 mi NNE 9.2 mph - N/A   Partly Cloudy
7:54 PM 73.9 °F - 59.0 °F 59% 30.15 in 10.0 mi NE 4.6 mph - N/A   Clear
8:54 PM 71.1 °F - 57.0 °F 61% 30.17 in 10.0 mi NE 5.8 mph - N/A   Clear
9:54 PM 69.1 °F - 55.9 °F 63% 30.19 in 10.0 mi ENE 6.9 mph - N/A   Clear
10:54 PM 66.0 °F - 54.0 °F 65% 30.19 in 10.0 mi ENE 6.9 mph - N/A   Clear
11:54 PM 64.0 °F - 54.0 °F 70% 30.20 in 10.0 mi East 4.6 mph - N/A   Clear